Weather History for St. Joseph, MO

Change the Weather History Date:

Thursday, October 25, 2012

  Actual Average Record
Temperature  
Mean Temperature 56 °F 51 °F  
Max Temperature 74 °F 63 °F 87 °F (1927)
Min Temperature 38 °F 40 °F 21 °F (2013)
Degree Days  
Heating Degree Days 9 14  
Month to date heating degree days 248 247  
Since 1 July heating degree days 358 327  
Cooling Degree Days 0 0  
Month to date cooling degree days 29 18  
Year to date cooling degree days 1560 1217  
Growing Degree Days 6 (Base 50)    
Moisture  
Dew Point 43 °F    
Average Humidity 74    
Maximum Humidity 89    
Minimum Humidity 59    
Precipitation  
Precipitation 0.05 in 0.09 in 1.18 in (1986)
Month to date precipitation 1.65 2.32  
Year to date precipitation 20.52 32.04  
Sea Level Pressure  
Sea Level Pressure 29.91 in    
Wind  
Wind Speed 19 mph (NW)    
Max Wind Speed 31 mph    
Max Gust Speed 40 mph    
Visibility 8 miles    
Events Rain    
T = Trace of Precipitation, MM = Missing Value Source: NWS Daily Summary

Daily Weather History Graph

Daily Weather History Graph

Search for Another Location

Airport:

Trip Planner

Search our weather history database for the weather conditions in past years. The results will help you decide how hot, cold, wet, or windy it might be!

Date:

Astronomy

Oct. 25, 2012 Rise Set
Actual Time 7:41 AM CDT 6:25 PM CDT
Civil Twilight 7:13 AM CDT 6:53 PM CDT
Nautical Twilight 6:41 AM CDT 7:24 PM CDT
Astronomical Twilight 6:10 AM CDT 7:56 PM CDT
Moon 4:11 PM CDT (10/25) 3:38 AM CDT (10/25)
Length of Visible Light 11h 39m
Length of Day
10h 44m
Waxing Gibbous, 84% of the Moon is Illuminated
Oct 25
Waxing Gibbous
Oct 29
Full
Nov 6
Last Quarter
Nov 13
New
Nov 20
First Quarter

Hourly Weather History & Observations

Time (CDT) Temp. Windchill Dew Point Humidity Pressure Visibility Wind Dir Wind Speed Gust Speed Precip Events Conditions
12:53 AM 73.9 °F - 59.0 °F 59% 29.63 in 10.0 mi South 23.0 mph 29.9 mph N/A   Overcast
1:53 AM 73.0 °F - 59.0 °F 61% 29.61 in 10.0 mi South 23.0 mph 29.9 mph N/A   Mostly Cloudy
2:53 AM 72.0 °F - 59.0 °F 64% 29.60 in 10.0 mi South 19.6 mph 27.6 mph N/A   Overcast
3:53 AM 72.0 °F - 60.1 °F 66% 29.60 in 10.0 mi SSW 19.6 mph 28.8 mph N/A   Overcast
4:35 AM 71.6 °F - 60.8 °F 69% 29.63 in 10.0 mi SW 17.3 mph 24.2 mph N/A   Overcast
4:48 AM 60.8 °F - 57.2 °F 88% 29.64 in 3.0 mi NW 16.1 mph - 0.01 in Rain Rain
4:53 AM 57.9 °F - 55.0 °F 90% 29.63 in 3.0 mi NW 15.0 mph - 0.02 in Rain Light Rain
5:00 AM 55.4 °F - 53.6 °F 94% 29.65 in 6.0 mi NW 12.7 mph - 0.00 in Rain Light Rain
5:19 AM 55.4 °F - 51.8 °F 88% 29.67 in 5.0 mi NNW 15.0 mph - 0.00 in   Overcast
5:41 AM 53.6 °F - 51.8 °F 94% 29.68 in 5.0 mi NW 12.7 mph - 0.00 in Rain Light Rain
5:53 AM 51.1 °F - 48.9 °F 92% 29.68 in 4.0 mi NW 15.0 mph - 0.01 in Rain Light Rain
6:53 AM 48.0 °F - 45.0 °F 89% 29.73 in 6.0 mi NNW 16.1 mph 24.2 mph 0.01 in Rain Light Rain
7:53 AM 46.0 °F 38.8 °F 42.1 °F 86% 29.77 in 7.0 mi NNW 18.4 mph 28.8 mph 0.00 in Rain Light Rain
8:53 AM 44.1 °F 35.0 °F 39.9 °F 85% 29.83 in 4.0 mi NNW 24.2 mph 29.9 mph 0.01 in Rain Light Rain
9:53 AM 44.1 °F 35.9 °F 39.0 °F 82% 29.90 in 10.0 mi NW 19.6 mph - 0.00 in   Overcast
10:53 AM 44.1 °F 36.5 °F 39.0 °F 82% 29.93 in 10.0 mi NNW 17.3 mph 27.6 mph N/A   Overcast
11:18 AM 42.8 °F 34.0 °F 37.4 °F 81% 29.96 in 8.0 mi NW 20.7 mph 27.6 mph N/A   Overcast
11:53 AM 42.1 °F 32.6 °F 37.0 °F 82% 29.98 in 10.0 mi NNW 23.0 mph 32.2 mph N/A   Overcast
12:53 PM 43.0 °F 34.0 °F 37.0 °F 80% 30.01 in 10.0 mi NNW 21.9 mph 31.1 mph N/A   Overcast
1:53 PM 44.1 °F 34.8 °F 37.0 °F 76% 30.04 in 10.0 mi NNW 25.3 mph 29.9 mph N/A   Overcast
2:53 PM 48.0 °F - 37.9 °F 68% 30.06 in 10.0 mi North 19.6 mph - N/A   Overcast
3:26 PM 48.2 °F - 35.6 °F 62% 30.07 in 10.0 mi NNW 25.3 mph 32.2 mph N/A   Mostly Cloudy
3:53 PM 48.0 °F - 35.1 °F 61% 30.08 in 10.0 mi North 20.7 mph 29.9 mph N/A   Partly Cloudy
4:53 PM 46.9 °F - 34.0 °F 61% 30.13 in 10.0 mi NNW 20.7 mph 28.8 mph N/A   Mostly Cloudy
5:53 PM 45.0 °F 37.4 °F 33.1 °F 63% 30.17 in 10.0 mi North 18.4 mph 27.6 mph N/A   Mostly Cloudy
6:53 PM 42.1 °F 33.3 °F 32.0 °F 67% 30.22 in 10.0 mi NNW 19.6 mph 27.6 mph N/A   Overcast
7:10 PM 42.8 °F 34.8 °F 30.2 °F 61% 30.22 in 10.0 mi NNW 17.3 mph 25.3 mph N/A   Overcast
7:53 PM 41.0 °F 32.5 °F 30.0 °F 65% 30.26 in 10.0 mi NNW 17.3 mph - N/A   Overcast
8:53 PM 39.9 °F 30.8 °F 28.0 °F 63% 30.29 in 10.0 mi North 18.4 mph - N/A   Overcast
9:53 PM 39.0 °F 28.3 °F 28.0 °F 65% 30.31 in 10.0 mi North 24.2 mph 28.8 mph N/A   Overcast
10:53 PM 39.0 °F 29.6 °F 27.0 °F 62% 30.33 in 10.0 mi NNW 18.4 mph 28.8 mph N/A   Overcast